星链-5176 (STARLINK-5176 )

导读

STARLINK-5176是美国太空探索技术公司SpaceX星链卫星星座中的一颗卫星,于2022年10月20日发射入轨,属于星链互联网卫星项目,承担着为全球范围提供低延迟、高速宽带互联网服务的任务,运行在近地轨道,是SpaceX大规模组网部署星链星座进程中的组成部分。

基本信息
目录编号:
54053
目录名称:
STARLINK-5176
国际标识:
2022-136C
轨道中心:
EARTH
卫星名称:
星链-5176
卫星全名:
星链-5176 (STARLINK-5176 )
卫星状态:
在轨 (已飞行1334 天)
发射日期:
2022-10-20 UTC
国别 :
美国 (US)
星等 :
--
轨道信息
数据来源 国际轨道数据
星历时间: 2026-06-14T21:11:49+0800
18小时前
查看轨道信息
半长轴: 6917.871km
偏心率: 0.0001401
轨道倾角: 53.160°
近地点辐角 77.535°
升交点赤经 269.424°
平近点角 282.579°
近地点: 538.764km
远地点: 540.704km
周期: 95.437分钟
每日圈数: 15.088432
详细信息
固有亮度:
5
最大亮度:
2.5
卫星平台:
Starlink v1.5
覆盖范围:
全球
运营商:
太空探索技术公司
运营商所在国:
美国
制造商(研发单位):
太空探索技术公司
制造商所在国:
美国
使用方式:
暂无
卫星简介
星链(Starlink)计划是由太空探索技术公司(SpaceX)提出的一个巨型低轨卫星互联网星座项目,计划在2019年至2024年间在太空搭建由约1.2万颗卫星组成的“星链”网络,其中1584颗将部署在地球上空550千米处的近地轨道,并从2020年开始工作。该卫星仍在工作。
2D轨道图
3D轨道图
轨道高度分析图
轨道倾角分析图
轨道综合分析图
查看轨道综合分析图